This is the latest recevied weather packets stored in our database for station/object 9A3SWO. If no packets are shown the sender has not sent any weather packets the latest 10 day(s).
| Time | Temp. | Humidity | Pressure | Rain* | Wind** | Luminosity | Snow |
|---|---|---|---|---|---|---|---|
| 1787607486 | 20° C | 59% | 1017.6 hPa | - | - | - | - |
| 1787606888 | 20.56° C | 57% | 1017.8 hPa | - | - | - | - |
| 1787606287 | 20.56° C | 57% | 1017.8 hPa | - | - | - | - |
| 1787605687 | 20.56° C | 56% | 1017.6 hPa | - | - | - | - |
| 1787605087 | 21.11° C | 56% | 1017.6 hPa | - | - | - | - |
| 1787604487 | 21.11° C | 55% | 1017.7 hPa | - | - | - | - |
| 1787603887 | 21.67° C | 54% | 1017.7 hPa | - | - | - | - |
| 1787603286 | 21.67° C | 53% | 1017.7 hPa | - | - | - | - |
| 1787602688 | 21.67° C | 54% | 1017.6 hPa | - | - | - | - |
| 1787602086 | 21.67° C | 53% | 1017.8 hPa | - | - | - | - |
| 1787601487 | 22.22° C | 50% | 1018 hPa | - | - | - | - |
| 1787600886 | 22.22° C | 50% | 1018.2 hPa | - | - | - | - |
| 1787600286 | 22.78° C | 50% | 1018.1 hPa | - | - | - | - |
| 1787599687 | 22.78° C | 49% | 1018.2 hPa | - | - | - | - |
| 1787599087 | 23.33° C | 48% | 1018 hPa | - | - | - | - |
| 1787598487 | 23.33° C | 48% | 1018.1 hPa | - | - | - | - |
| 1787597887 | 23.89° C | 46% | 1017.7 hPa | - | - | - | - |
| 1787597286 | 24.44° C | 45% | 1017.4 hPa | - | - | - | - |
| 1787596686 | 25° C | 44% | 1017.4 hPa | - | - | - | - |
| 1787596086 | 26.67° C | 41% | 1017.1 hPa | - | - | - | - |
| 1787595486 | 26.67° C | 40% | 1017 hPa | - | - | - | - |
| 1787594886 | 27.78° C | 38% | 1017 hPa | - | - | - | - |
| 1787594286 | 27.78° C | 38% | 1016.9 hPa | - | - | - | - |
| 1787593686 | 28.33° C | 38% | 1016.9 hPa | - | - | - | - |
| 1787593086 | 27.78° C | 37% | 1016.9 hPa | - | - | - | - |
* Rain since midnight (hover to see other rain measurements)
** Current wind speed in m/s (hover to see current wind gust speed)